Waarnemingen

Advertentie
Mijn weer
Dax, Frankrijk (7603): temperatuur & dauwpunt: 18.02.2018 22:00:00 - 24.02.2018 22:00:00 (CET)Dax, Frankrijk (7603): temperatuur 5cm: 18.02.2018 22:00:00 - 24.02.2018 22:00:00 (CET)Dax, Frankrijk (7603): temperatuur -20cm & temperatuur -100cm: 18.02.2018 22:00:00 - 24.02.2018 22:00:00 (CET)Dax, Frankrijk (7603): windsnelheid & windstoten: 18.02.2018 22:00:00 - 24.02.2018 22:00:00 (CET)Dax, Frankrijk (7603): windrichting: 18.02.2018 22:00:00 - 24.02.2018 22:00:00 (CET)Dax, Frankrijk (7603): luchtdruk: 18.02.2018 22:00:00 - 24.02.2018 22:00:00 (CET)Dax, Frankrijk (7603): zicht: 18.02.2018 22:00:00 - 24.02.2018 22:00:00 (CET)Dax, Frankrijk (7603): Zonneschijnduur: 18.02.2018 22:00:00 - 24.02.2018 22:00:00 (CET)Dax, Frankrijk (7603): neerslag: 18.02.2018 22:00:00 - 24.02.2018 22:00:00 (CET)
Datum & Tijd tt [°C] td [°C] tt 5cm [°C] tt -20cm [°C] tt -100cm [°C] ff [km/u] ff [kn] fx [km/u] fx [kn] dd ppp [hPa] vv [km] sd [min] rr [mm]
24.02.2018 22:00:00 3,8 0,1 2,4 8,7 10,6 4 2 9 5 NNW 1011,9 7 0 0,0
24.02.2018 21:00:00 5,0 0,7 4,0 8,7 10,6 7 4 10 6 N 1011,8 7 0 0,0
24.02.2018 20:00:00 5,6 0,9 4,7 8,7 10,6 6 3 11 6 NW 1011,3 8 0 0,0
24.02.2018 19:00:00 7,3 0,5 6,3 8,7 10,6 8 5 14 8 NW 1011,2 8 0 0,0
24.02.2018 18:00:00 9,2 -1,0 8,9 8,5 10,6 3 1 13 7 O 1010,3 8 18 0,0
24.02.2018 17:00:00 9,7 -1,4 11,3 8,4 10,6 9 5 16 9 ONO 1010,2 8 60 0,0
24.02.2018 16:00:00 9,0 -0,9 10,4 8,1 10,6 7 4 19 10 NO 1010,1 6 48 0,0
24.02.2018 15:00:00 8,6 -0,7 9,5 7,9 10,6 8 4 16 9 ONO 1010,0 8 33 0,0
24.02.2018 14:00:00 8,2 -1,4 11,7 7,8 10,6 6 3 17 9 NNO 1010,1 8 60 0,0
24.02.2018 13:00:00 7,8 -1,2 9,8 7,6 10,6 8 4 17 9 ZO 1010,2 8 60 0,0
24.02.2018 12:00:00 6,3 -1,1 7,8 7,6 10,6 7 4 13 7 ZZO 1010,3 7 60 0,0
24.02.2018 11:00:00 4,4 -0,4 4,6 7,6 10,6 4 2 10 5 ZZO 1010,7 6 60 0,0
24.02.2018 10:00:00 1,8 -0,9 1,7 7,8 10,7 6 3 10 5 OZO 1010,9 4,8 60 0,0
24.02.2018 09:00:00 -0,4 -1,4 -2,5 7,9 10,7 3 1 5 3 ONO 1010,4 2,9 49 0,0
24.02.2018 08:00:00 -2,0 -3,0 -3,5 8,0 10,7 0 0 4 2 N 1010,1 3,4 0 0,0
24.02.2018 07:00:00 -2,1 -3,2 -3,0 8,1 10,7 2 1 4 2 O 1009,9 3,5 0 0,0
24.02.2018 06:00:00 -1,5 -3,4 -2,6 8,2 10,7 2 1 7 4 NNW 1009,5 4,5 0 0,0
24.02.2018 05:00:00 -0,9 -2,8 -2,0 8,3 10,7 3 2 7 4 NO 1009,3 6 0 0,0
24.02.2018 04:00:00 -0,8 -3,0 -2,0 8,5 10,7 5 3 7 4 N 1009,5 6 0 0,0
24.02.2018 03:00:00 -0,5 -3,0 -1,5 8,5 10,7 0 0 3 2 N 1009,4 6 0 0,0
24.02.2018 02:00:00 0,7 -2,9 -0,3 8,6 10,7 2 1 9 5 NNO 1009,4 7 0 0,0
24.02.2018 01:00:00 1,6 -2,9 0,8 8,7 10,7 6 3 13 7 NNO 1009,5 9 0 0,0
24.02.2018 00:00:00 2,6 -2,7 1,0 8,8 10,7 7 4 15 8 N 1009,7 8 0 0,0
23.02.2018 23:00:00 4,1 -3,7 2,8 8,8 10,7 3 1 11 6 OZO 1009,8 8 0 0,0
23.02.2018 22:00:00 4,5 -2,8 4,0 8,8 10,7 4 2 9 5 ZO 1010,1 8 0 0,0
23.02.2018 21:00:00 4,7 -3,6 3,9 8,8 10,7 2 1 10 5 OZO 1009,9 8 0 0,0
23.02.2018 20:00:00 4,7 -4,3 4,1 8,8 10,7 0 0 10 6 N 1009,8 8 0 0,0
23.02.2018 19:00:00 5,0 -4,1 4,6 8,8 10,7 4 2 10 5 OZO 1009,4 10 0 0,0
23.02.2018 18:00:00 5,2 -4,1 5,2 8,7 10,8 6 3 15 8 OZO 1009,2 10 0 0,0
23.02.2018 17:00:00 5,5 -3,3 6,0 8,6 10,8 3 2 7 4 Z 1009,0 10 0 0,0
23.02.2018 16:00:00 5,5 -3,3 6,2 8,5 10,8 4 2 8 4 ZZO 1009,4 11 0 0,0
23.02.2018 15:00:00 5,4 -3,9 6,0 8,3 10,7 3 2 9 5 NO 1009,6 11 0 0,0
23.02.2018 14:00:00 5,5 -4,4 6,6 8,2 10,8 3 1 14 7 N 1009,9 11 25 0,0
23.02.2018 13:00:00 6,1 -2,3 8,6 8,1 10,8 6 3 13 7 ZW 1010,4 9 60 0,0
23.02.2018 12:00:00 4,9 -1,3 7,3 8,1 10,8 3 2 10 6 ZO 1011,1 6 60 0,0
23.02.2018 11:00:00 2,6 -2,3 5,1 8,1 10,8 3 1 13 7 NNW 1011,4 6 60 0,0
23.02.2018 10:00:00 0,2 -1,4 0,7 8,2 10,7 4 2 6 4 NNW 1011,7 3,6 60 0,0
23.02.2018 09:00:00 -1,9 -2,9 -3,1 8,4 10,8 3 2 7 4 NW 1011,7 2,9 26 0,0
23.02.2018 08:00:00 -2,6 -3,4 -3,7 8,5 10,8 5 3 8 4 NW 1011,5 2,5 0 0,0
23.02.2018 07:00:00 -2,4 -3,7 -3,1 8,6 10,8 0 0 3 2 N 1011,5 2,0 0 0,0
23.02.2018 06:00:00 -2,0 -3,1 -2,6 8,8 10,8 0 0 2 1 N 1011,3 3,7 0 0,0
23.02.2018 05:00:00 -1,9 -3,0 -2,6 8,9 10,8 0 0 7 4 N 1011,5 3,3 0 0,0
23.02.2018 04:00:00 -1,5 -2,9 -2,8 9,0 10,8 3 2 5 3 NW 1011,7 3,2 0 0,0
23.02.2018 03:00:00 -1,2 -2,8 -2,3 9,2 10,8 3 2 5 3 NW 1012,1 4,1 0 0,0
23.02.2018 02:00:00 -0,7 -3,2 -1,6 9,3 10,8 2 1 5 3 NNW 1012,4 6 0 0,0
23.02.2018 01:00:00 0,2 -3,5 -0,7 9,5 10,8 0 0 8 4 N 1012,7 6 0 0,0
23.02.2018 00:00:00 1,4 -3,7 0,4 9,6 10,8 3 2 8 5 N 1012,9 7 0 0,0
22.02.2018 23:00:00 1,8 -2,7 0,7 9,7 10,8 3 2 9 5 N 1013,0 8 0 0,0
22.02.2018 22:00:00 2,4 -1,0 1,1 9,8 10,8 5 3 8 5 NNW 1013,1 6 0 0,0
22.02.2018 21:00:00 3,8 -1,0 2,5 9,8 10,8 5 3 10 5 N 1013,1 7 0 0,0
22.02.2018 20:00:00 4,5 -0,7 3,2 9,8 10,8 4 2 9 5 WNW 1012,6 6 0 0,0
22.02.2018 19:00:00 6,0 -1,0 5,2 9,8 10,8 6 3 22 12 NW 1012,3 8 21 0,0
22.02.2018 18:00:00 7,7 -1,0 8,6 9,7 10,8 15 8 25 13 NW 1011,9 7 60 0,0
22.02.2018 17:00:00 8,9 -2,1 11,5 9,6 10,8 11 6 29 16 NNW 1011,8 9 60 0,0
22.02.2018 16:00:00 9,0 -4,9 13,0 9,4 10,8 11 6 22 12 N 1012,1 10 60 0,0
22.02.2018 15:00:00 8,5 -3,7 11,2 9,2 10,8 8 5 19 11 N 1012,9 10 60 0,0
22.02.2018 14:00:00 7,7 -2,6 10,5 9,1 10,8 8 4 18 10 N 1013,5 8 60 0,0
22.02.2018 13:00:00 5,9 -0,4 8,4 9,0 10,8 8 4 19 10 WNW 1014,2 5 60 0,0
22.02.2018 12:00:00 3,7 -0,9 7,3 9,0 10,8 6 3 11 6 NNW 1015,1 3,0 56 0,0
22.02.2018 11:00:00 2,7 -0,8 3,4 9,1 10,8 6 3 11 6 W 1015,3 2,0 48 0,0
22.02.2018 10:00:00 1,1 -1,0 2,3 9,2 10,8 5 3 8 4 WNW 1015,4 1,2 50 0,0
22.02.2018 09:00:00 0,2 -1,4 -1,0 9,3 10,8 3 1 10 6 N 1015,5 2,4 36 0,0
22.02.2018 08:00:00 -0,3 -1,7 -1,4 9,5 10,8 4 2 7 4 N 1015,1 1,5 0 0,0
22.02.2018 07:00:00 0,2 -2,0 -0,7 9,6 10,7 0 0 7 4 N 1015,1 2,0 0 0,0
22.02.2018 06:00:00 0,9 -1,5 -0,1 9,7 10,8 5 3 11 6 NNW 1014,8 3,1 0 0,0
22.02.2018 05:00:00 1,9 -1,0 1,5 9,8 10,8 5 3 12 6 N 1015,1 3,9 0 0,0
22.02.2018 04:00:00 1,6 -1,0 0,2 9,9 10,7 8 4 13 7 N 1015,4 3,9 0 0,0
22.02.2018 03:00:00 0,8 -1,4 0,1 10,0 10,7 3 2 11 6 N 1015,8 4,0 0 0,0
22.02.2018 02:00:00 1,1 -1,3 0,4 10,2 10,7 5 3 13 7 NNW 1016,1 4,3 0 0,0
22.02.2018 01:00:00 1,6 -1,3 0,6 10,3 10,7 5 3 11 6 NNW 1016,2 4,3 0 0,0
22.02.2018 00:00:00 2,3 -1,1 1,4 10,4 10,7 4 2 12 7 NNW 1016,7 6 0 0,0
21.02.2018 23:00:00 3,1 -0,9 2,2 10,5 10,7 5 3 20 11 NNW 1016,7 6 0 0,0
21.02.2018 22:00:00 4,8 -1,0 4,1 10,6 10,7 13 7 26 14 NNO 1017,2 7 0 0,0
21.02.2018 21:00:00 5,1 -0,7 4,5 10,7 10,7 7 4 22 12 N 1017,0 8 0 0,0
21.02.2018 20:00:00 6,2 -0,5 5,6 10,7 10,7 10 6 24 13 N 1016,4 9 0 0,0
21.02.2018 19:00:00 7,6 -1,1 7,1 10,7 10,7 9 5 24 13 N 1016,0 12 20 0,0
21.02.2018 18:00:00 8,8 -2,5 10,2 10,7 10,7 14 8 29 16 N 1015,5 17 60 0,0
21.02.2018 17:00:00 9,7 -2,0 13,0 10,6 10,7 12 6 28 15 NNW 1015,3 15 60 0,0
21.02.2018 16:00:00 10,1 -1,3 13,7 10,5 10,7 11 6 26 14 N 1015,6 15 60 0,0
21.02.2018 15:00:00 10,0 -2,0 13,3 10,4 10,7 14 7 29 16 N 1015,9 15 60 0,0
21.02.2018 14:00:00 9,3 -2,0 12,4 10,3 10,7 16 8 28 15 NNO 1016,3 15 60 0,0
21.02.2018 13:00:00 8,6 -0,5 11,4 10,3 10,7 11 6 29 16 NO 1016,9 15 60 0,0
21.02.2018 12:00:00 7,7 0,9 11,1 10,3 10,7 14 8 27 15 NNO 1017,5 15 60 0,0
21.02.2018 11:00:00 6,6 1,3 7,7 10,3 10,7 15 8 35 19 N 1017,8 15 46 0,0
21.02.2018 10:00:00 6,0 1,7 6,0 10,4 10,7 18 10 33 18 N 1017,7 15 25 0,0
21.02.2018 09:00:00 5,6 1,7 5,8 10,5 10,7 16 8 32 18 N 1017,6 15 5 0,0
21.02.2018 08:00:00 6,6 3,4 6,4 10,5 10,7 16 9 32 17 N 1016,9 10 0 0,0
21.02.2018 07:00:00 6,7 3,8 6,5 10,6 10,7 13 7 24 13 NNW 1016,6 10 0 0,0
21.02.2018 06:00:00 6,7 3,8 6,4 10,7 10,7 11 6 22 12 NW 1016,3 22 0 0,0
21.02.2018 05:00:00 6,7 4,0 6,2 10,7 10,7 12 6 26 14 NW 1016,2 18 0 0,0
21.02.2018 04:00:00 7,6 5,2 6,8 10,8 10,7 15 8 29 16 NNW 1016,1 17 0 0,0
21.02.2018 03:00:00 8,2 6,0 7,3 10,8 10,6 19 11 33 18 N 1016,2 13 0 0,0
21.02.2018 02:00:00 9,0 6,8 8,2 10,9 10,6 17 9 29 16 N 1016,5 11 0 0,0
21.02.2018 01:00:00 9,3 8,2 8,6 10,9 10,7 9 5 37 20 NNW 1016,9 9 0 0,8
21.02.2018 00:00:00 10,0 8,3 8,2 10,9 10,6 18 10 37 20 NW 1017,5 10 0 0,4
20.02.2018 23:00:00 10,2 9,0 9,5 11,0 10,6 9 5 18 10 NW 1018,3 6 0 0,2
20.02.2018 22:00:00 10,2 8,8 9,6 11,0 10,6 8 4 15 8 WNW 1018,9 7 0 0,0
20.02.2018 21:00:00 10,0 8,8 9,5 11,0 10,6 7 4 17 9 WNW 1019,6 7 0 0,0
20.02.2018 20:00:00 10,0 8,9 9,4 11,0 10,6 9 5 22 12 W 1019,5 7 0 0,0
20.02.2018 19:00:00 10,2 8,6 9,4 10,9 10,6 10 5 28 15 NW 1019,7 5 3 0,2
20.02.2018 18:00:00 11,0 8,2 11,0 10,9 10,6 14 7 31 17 NW 1019,5 9 0 0,0
20.02.2018 17:00:00 11,5 8,4 11,8 10,8 10,6 18 10 37 20 NW 1019,2 10 16 0,0
20.02.2018 16:00:00 11,8 8,5 11,7 10,7 10,6 16 9 37 20 NW 1018,9 12 24 0,0
20.02.2018 15:00:00 11,2 9,6 10,4 10,7 10,6 14 7 26 14 NNW 1019,3 7 0 0,4
20.02.2018 14:00:00 10,7 9,8 10,5 10,7 10,6 14 7 29 16 NW 1019,6 3,4 0 1,0
20.02.2018 13:00:00 11,5 9,6 10,9 10,6 10,6 17 9 30 16 NW 1019,7 9 0 0,0
20.02.2018 12:00:00 10,9 9,7 10,1 10,7 10,6 14 8 27 14 NW 1020,0 7 0 0,2
20.02.2018 11:00:00 10,5 9,4 10,0 10,6 10,6 12 7 26 14 NW 1020,1 4,0 0 0,4
20.02.2018 10:00:00 10,4 9,5 9,8 10,7 10,6 11 6 22 12 NW 1019,8 4,0 0 0,4
20.02.2018 09:00:00 10,1 9,3 9,7 10,7 10,5 9 5 16 9 WNW 1019,5 4,8 0 0,2
20.02.2018 08:00:00 10,2 9,3 9,7 10,7 10,6 10 5 18 10 NW 1019,1 4,0 0 0,4
20.02.2018 07:00:00 10,6 9,8 10,1 10,7 10,5 10 6 20 11 NW 1018,8 4,0 0 0,2
20.02.2018 06:00:00 10,7 9,9 10,3 10,7 10,5 11 6 24 13 NW 1018,7 7 0 0,2
20.02.2018 05:00:00 10,7 10,1 10,4 10,8 10,6 7 4 18 10 NW 1018,5 7 0 0,6
20.02.2018 04:00:00 10,6 10,1 10,3 10,7 10,5 10 5 15 8 NW 1018,5 3,4 0 0,4
20.02.2018 03:00:00 10,5 10,0 10,3 10,7 10,5 3 2 11 6 WNW 1018,6 2,1 0 0,2
20.02.2018 02:00:00 10,5 10,0 10,2 10,7 10,5 4 2 13 7 WNW 1019,1 4,5 0 0,4
20.02.2018 01:00:00 10,4 9,9 10,1 10,8 10,5 4 2 12 6 NW 1019,2 2,9 0 0,0
20.02.2018 00:00:00 10,3 9,8 10,0 10,8 10,6 5 3 10 5 WNW 1018,9 2,1 0 0,0
19.02.2018 23:00:00 10,2 9,7 9,9 10,8 10,5 4 2 9 5 WNW 1019,2 6 0 0,4
19.02.2018 22:00:00 10,2 9,6 9,9 10,8 10,5 6 3 13 7 NW 1019,4 8 0 0,6
19.02.2018 21:00:00 10,4 9,8 10,1 10,8 10,5 6 3 13 7 NW 1019,3 5 0 0,6
19.02.2018 20:00:00 10,6 9,8 10,2 10,8 10,5 5 3 10 6 WNW 1019,1 3,6 0 0,4
19.02.2018 19:00:00 10,8 9,9 10,4 10,7 10,5 8 4 18 10 NW 1019,2 9 0 0,4
19.02.2018 18:00:00 11,3 9,9 10,7 10,7 10,5 8 4 24 13 NW 1019,1 6 0 0,2
19.02.2018 17:00:00 12,0 9,6 12,1 10,6 10,5 14 7 26 14 NW 1018,8 30 0 0,0
19.02.2018 16:00:00 12,4 9,6 12,5 10,5 10,5 13 7 25 14 NW 1018,6 12 0 0,0
19.02.2018 15:00:00 12,8 10,0 11,5 10,4 10,5 13 7 20 11 NW 1018,7 12 0 0,0
19.02.2018 14:00:00 12,8 9,8 13,1 10,3 10,5 10 5 23 13 NW 1018,9 12 0 0,0
19.02.2018 13:00:00 12,3 10,7 12,3 10,2 10,5 9 5 20 11 NW 1019,5 18 0 0,0
19.02.2018 12:00:00 12,1 10,7 11,9 10,1 10,5 9 5 15 8 NW 1019,6 9 0 0,0
19.02.2018 11:00:00 11,5 10,6 11,3 10,1 10,5 5 3 10 5 NW 1019,5 5 0 0,0
19.02.2018 10:00:00 11,0 10,1 10,9 10,1 10,5 5 3 12 7 NW 1019,5 5 2 0,0
19.02.2018 09:00:00 10,7 10,2 10,3 10,1 10,5 4 2 7 4 W 1019,4 11 0 0,0
19.02.2018 08:00:00 10,5 10,0 10,2 10,1 10,5 3 1 10 5 W 1019,3 4,5 0 0,4
19.02.2018 07:00:00 10,5 10,0 10,0 10,1 10,5 6 3 11 6 W 1019,1 4,0 0 0,8
19.02.2018 06:00:00 10,3 9,8 9,9 10,1 10,5 5 3 10 5 W 1019,1 8 0 0,4
19.02.2018 05:00:00 10,2 9,7 9,9 10,0 10,5 5 3 14 8 WZW 1019,3 12 0 0,6
19.02.2018 04:00:00 10,4 9,8 10,0 10,1 10,5 5 3 16 9 W 1019,5 2,2 0 0,2
19.02.2018 03:00:00 10,5 9,9 9,8 10,0 10,5 6 4 14 7 W 1020,0 0,8 0 1,2
19.02.2018 02:00:00 10,1 9,3 9,4 10,0 10,5 5 3 13 7 W 1020,4 8 0 0,0
19.02.2018 01:00:00 10,0 9,1 9,5 10,0 10,5 8 4 19 10 WNW 1021,0 7 0 0,0
19.02.2018 00:00:00 10,1 9,2 9,5 10,0 10,4 8 5 14 8 WNW 1021,3 3,7 0 0,4
18.02.2018 23:00:00 10,2 9,1 9,7 10,0 10,5 6 3 22 12 WNW 1021,7 14 0 0,2
18.02.2018 22:00:00 10,6 9,8 10,1 10,0 10,5 12 7 32 17 NNW 1022,1 1,2 0 3,3

tt = temperatuur
td = dauwpunt
tt 5cm = temperatuur 5cm
tt -20cm = temperatuur -20cm
tt -100cm = temperatuur -100cm
ff = windsnelheid
fx = windstoten
dd = windrichting
ppp = luchtdruk
vv = zicht
sd = Zonneschijnduur
rr = neerslag

Weerstations in de omgeving